Dades meteomassalio
Diari Summary for Abril 11, 2017 Units:  Metric    English   Both
« Previous Day
Next Day »
Diari Semanal Mensual Anual Personalitzat
  Maxima: Minima: Mijana:
Temperatura: -17.8 °C -13.9 °C -8.7 °C
Rosada: -17.8 °C -18.8 °C -14.9 °C
Humitat: Humidity % 17 % 52 %
Velocitat del vent: 0 km/h 0 km/h 15 km/h
Racha vent: 0 km/h - -
Vent:- - WNW
Pressio: 0 hPa 34486.4 hPa -
Pluja: 0 mm    
Historical Graphs
 
 
Tabular Data for Abril 11, 2017
Time Temperature Dew Point Pressure Wind Wind Speed Wind Gust Humidity Rainfall Rate (Hourly) solar Conditions
-17.8 °C -17.8 °C 0 hPa Calm     Humidity % 0 mm SolarRadiationWatts/m^2 W/m2 Conditions
00:03 -11.2 °C -14.6 °C 34625.2 hPa Calm     66 % 0 mm 0.0 W/m2 CLR
00:08 -11.2 °C -14.6 °C 34625.2 hPa Calm     67 % 0 mm 0.0 W/m2 CLR
00:13 -11.3 °C -14.6 °C 34625.2 hPa Calm     67 % 0 mm 0.0 W/m2 CLR
00:18 -11.3 °C -14.6 °C 34625.2 hPa Calm     67 % 0 mm 0.0 W/m2 CLR
00:23 -11.3 °C -14.6 °C 34625.2 hPa Calm     67 % 0 mm 0.0 W/m2 CLR
00:28 -11.4 °C -14.6 °C 34625.2 hPa Calm     68 % 0 mm 0.0 W/m2 CLR
00:33 -11.6 °C -14.6 °C 34611.7 hPa Calm     69 % 0 mm 0.0 W/m2 CLR
00:38 -11.7 °C -14.6 °C 34611.7 hPa Calm     70 % 0 mm 0.0 W/m2 CLR
00:43 -11.7 °C -14.7 °C 34625.2 hPa Calm     70 % 0 mm 0.0 W/m2 CLR
00:48 -11.8 °C -14.6 °C 34625.2 hPa Calm     71 % 0 mm 0.0 W/m2 CLR
00:53 -11.8 °C -14.6 °C 34611.7 hPa Calm     71 % 0 mm 0.0 W/m2 CLR
00:58 -11.8 °C -14.6 °C 34625.2 hPa Calm     71 % 0 mm 0.0 W/m2 CLR
01:03 -11.7 °C -14.7 °C 34625.2 hPa Calm     70 % 0 mm 0.0 W/m2 CLR
01:08 -11.7 °C -14.7 °C 34625.2 hPa Calm     70 % 0 mm 0.0 W/m2 CLR
01:13 -11.8 °C -14.6 °C 34611.7 hPa Calm     71 % 0 mm 0.0 W/m2 CLR
01:18 -11.8 °C -14.5 °C 34611.7 hPa Calm     72 % 0 mm 0.0 W/m2 CLR
01:23 -11.7 °C -14.6 °C 34611.7 hPa Calm     71 % 0 mm 0.0 W/m2 CLR
01:28 -11.8 °C -14.6 °C 34611.7 hPa Calm     71 % 0 mm 0.0 W/m2 CLR
01:33 -11.8 °C -14.6 °C 34611.7 hPa Calm     71 % 0 mm 0.0 W/m2 CLR
01:38 -11.8 °C -14.6 °C 34611.7 hPa Calm     71 % 0 mm 0.0 W/m2 CLR
01:43 -11.8 °C -14.7 °C 34611.7 hPa Calm     71 % 0 mm 0.0 W/m2 CLR
01:48 -12.1 °C -14.7 °C 34611.7 hPa Calm     72 % 0 mm 0.0 W/m2 CLR
01:53 -12.1 °C -14.7 °C 34611.7 hPa Calm     73 % 0 mm 0.0 W/m2 CLR
01:58 -12.2 °C -14.7 °C 34611.7 hPa Calm     74 % 0 mm 0.0 W/m2 CLR
02:03 -12.2 °C -14.7 °C 34611.7 hPa Calm     74 % 0 mm 0.0 W/m2 CLR
02:08 -12.2 °C -14.6 °C 34611.7 hPa Calm     75 % 0 mm 0.0 W/m2 CLR
02:13 -12.1 °C -14.6 °C 34611.7 hPa Calm     74 % 0 mm 0.0 W/m2 CLR
02:18 -12.1 °C -14.6 °C 34611.7 hPa Calm     74 % 0 mm 0.0 W/m2 CLR
02:23 -12.2 °C -14.8 °C 34611.7 hPa Calm     73 % 0 mm 0.0 W/m2 CLR
02:28 -12.3 °C -14.7 °C 34611.7 hPa Calm     74 % 0 mm 0.0 W/m2 CLR
02:33 -12.3 °C -14.8 °C 34611.7 hPa Calm     74 % 0 mm 0.0 W/m2 CLR
02:38 -12.4 °C -14.8 °C 34601.5 hPa Calm     75 % 0 mm 0.0 W/m2 CLR
02:43 -12.4 °C -14.7 °C 34601.5 hPa Calm     76 % 0 mm 0.0 W/m2 CLR
02:48 -12.5 °C -14.7 °C 34601.5 hPa Calm     76 % 0 mm 0.0 W/m2 CLR
02:53 -12.6 °C -14.8 °C 34601.5 hPa Calm     76 % 0 mm 0.0 W/m2 CLR
02:58 -12.6 °C -14.7 °C 34601.5 hPa Calm     77 % 0 mm 0.0 W/m2 CLR
03:03 -12.6 °C -14.8 °C 34601.5 hPa Calm     77 % 0 mm 0.0 W/m2 CLR
03:08 -12.6 °C -14.7 °C 34601.5 hPa Calm     77 % 0 mm 0.0 W/m2 CLR
03:13 -12.6 °C -14.7 °C 34601.5 hPa Calm     77 % 0 mm 0.0 W/m2 CLR
03:18 -12.6 °C -14.7 °C 34601.5 hPa Calm     77 % 0 mm 0.0 W/m2 CLR
03:23 -12.6 °C -14.7 °C 34601.5 hPa Calm     77 % 0 mm 0.0 W/m2 CLR
03:28 -12.6 °C -14.8 °C 34601.5 hPa Calm     77 % 0 mm 0.0 W/m2 CLR
03:33 -12.7 °C -14.8 °C 34601.5 hPa Calm     77 % 0 mm 0.0 W/m2 CLR
03:38 -12.8 °C -14.8 °C 34601.5 hPa Calm     78 % 0 mm 0.0 W/m2 CLR
03:43 -12.9 °C -14.8 °C 34601.5 hPa Calm     79 % 0 mm 0.0 W/m2 CLR
03:48 -12.9 °C -14.8 °C 34601.5 hPa Calm     79 % 0 mm 0.0 W/m2 CLR
03:53 -12.9 °C -14.8 °C 34601.5 hPa Calm     79 % 0 mm 0.0 W/m2 CLR
03:58 -12.8 °C -14.7 °C 34601.5 hPa Calm     79 % 0 mm 0.0 W/m2 CLR
04:03 -12.8 °C -14.8 °C 34601.5 hPa Calm     78 % 0 mm 0.0 W/m2 CLR
04:08 -12.9 °C -14.8 °C 34601.5 hPa Calm     79 % 0 mm 0.0 W/m2 CLR
04:13 -12.9 °C -14.9 °C 34601.5 hPa Calm     78 % 0 mm 0.0 W/m2 CLR
04:19 -12.9 °C -14.8 °C 34591.4 hPa Calm     79 % 0 mm 0.0 W/m2 CLR
04:24 -12.9 °C -14.8 °C 34601.5 hPa WSW 6 km/h 6 km/h 79 % 0 mm 0.0 W/m2 CLR
04:29 -12.8 °C -14.7 °C 34601.5 hPa Calm     79 % 0 mm 0.0 W/m2 CLR
04:34 -12.8 °C -14.8 °C 34601.5 hPa Calm     78 % 0 mm 0.0 W/m2 CLR
04:39 -12.8 °C -14.8 °C 34601.5 hPa Calm     78 % 0 mm 0.0 W/m2 CLR
04:44 -12.8 °C -14.8 °C 34601.5 hPa Calm     78 % 0 mm 0.0 W/m2 CLR
04:49 -12.8 °C -14.8 °C 34601.5 hPa Calm     79 % 0 mm 0.0 W/m2 CLR
04:54 -12.8 °C -14.8 °C 34601.5 hPa Calm     78 % 0 mm 0.0 W/m2 CLR
04:59 -12.8 °C -14.7 °C 34601.5 hPa Calm     79 % 0 mm 0.0 W/m2 CLR
05:04 -12.8 °C -14.8 °C 34591.4 hPa Calm     78 % 0 mm 0.0 W/m2 CLR
05:09 -12.9 °C -14.9 °C 34591.4 hPa Calm     78 % 0 mm 0.0 W/m2 CLR
05:14 -12.9 °C -14.9 °C 34591.4 hPa Calm     79 % 0 mm 0.0 W/m2 CLR
05:19 -12.9 °C -14.9 °C 34591.4 hPa Calm     79 % 0 mm 0.0 W/m2 CLR
05:24 -12.9 °C -14.7 °C 34591.4 hPa Calm     80 % 0 mm 0.0 W/m2 CLR
05:29 -12.9 °C -14.8 °C 34591.4 hPa Calm     79 % 0 mm 0.0 W/m2 CLR
05:34 -12.9 °C -14.9 °C 34591.4 hPa Calm     79 % 0 mm 0.0 W/m2 CLR
05:39 -13.1 °C -15 °C 34591.4 hPa Calm     79 % 0 mm 0.0 W/m2 CLR
05:44 -13.1 °C -14.9 °C 34601.5 hPa Calm     80 % 0 mm 0.0 W/m2 CLR
05:49 -13.2 °C -14.9 °C 34591.4 hPa Calm     80 % 0 mm 0.0 W/m2 CLR
05:54 -13.2 °C -15.1 °C 34591.4 hPa Calm     80 % 0 mm 0.0 W/m2 CLR
05:59 -13.3 °C -14.9 °C 34601.5 hPa Calm     81 % 0 mm 0.0 W/m2 CLR
06:04 -13.2 °C -14.9 °C 34601.5 hPa Calm     81 % 0 mm 0.0 W/m2 CLR
06:09 -13.3 °C -14.9 °C 34601.5 hPa Calm     81 % 0 mm 0.0 W/m2 CLR
06:14 -13.3 °C -15.1 °C 34601.5 hPa Calm     81 % 0 mm 0.0 W/m2 CLR
06:19 -13.3 °C -14.9 °C 34601.5 hPa Calm     82 % 0 mm 0.0 W/m2 CLR
06:24 -13.3 °C -14.9 °C 34601.5 hPa Calm     82 % 0 mm 0.0 W/m2 CLR
06:29 -13.3 °C -14.9 °C 34601.5 hPa Calm     82 % 0 mm 0.0 W/m2 CLR
06:34 -13.3 °C -14.9 °C 34601.5 hPa Calm     82 % 0 mm 0.0 W/m2 CLR
06:39 -13.3 °C -15.1 °C 34601.5 hPa Calm     81 % 0 mm 0.0 W/m2 CLR
06:44 -13.4 °C -15.1 °C 34611.7 hPa Calm     81 % 0 mm 0.0 W/m2 CLR
06:49 -13.5 °C -15.1 °C 34611.7 hPa Calm     82 % 0 mm 0.0 W/m2 CLR
06:54 -13.4 °C -14.9 °C 34601.5 hPa SW 9 km/h 9 km/h 83 % 0 mm 0.0 W/m2 CLR
06:59 -13.3 °C -14.9 °C 34611.7 hPa Calm     82 % 0 mm 0.0 W/m2 CLR
07:04 -13.4 °C -15.1 °C 34611.7 hPa Calm     81 % 0 mm 0.0 W/m2 CLR
07:09 -13.6 °C -15.2 °C 34611.7 hPa Calm     81 % 0 mm 0.0 W/m2 CLR
07:14 -13.7 °C -15.3 °C 34611.7 hPa Calm     82 % 0 mm 0.0 W/m2 CLR
07:19 -13.8 °C -15.3 °C 34611.7 hPa Calm     83 % 0 mm 0.0 W/m2 OVC
07:24 -13.9 °C -15.4 °C 34611.7 hPa Calm     83 % 0 mm 0.0 W/m2 OVC
07:29 -13.8 °C -15.2 °C 34611.7 hPa Calm     85 % 0 mm 5.0 W/m2 OVC
07:34 -13.8 °C -15.1 °C 34625.2 hPa Calm     85 % 0 mm 5.0 W/m2 OVC
07:39 -13.8 °C -15.3 °C 34625.2 hPa Calm     83 % 0 mm 11.0 W/m2 BKN
07:44 -13.9 °C -15.3 °C 34625.2 hPa Calm     84 % 0 mm 14.0 W/m2 BKN
07:49 -13.9 °C -15.3 °C 34625.2 hPa Calm     84 % 0 mm 18.0 W/m2 BKN
07:54 -13.8 °C -15.2 °C 34625.2 hPa Calm     85 % 0 mm 21.0 W/m2 BKN
07:59 -13.8 °C -15.1 °C 34625.2 hPa Calm     85 % 0 mm 26.0 W/m2 BKN
08:04 -13.6 °C -15.1 °C 34625.2 hPa Calm     84 % 0 mm 30.0 W/m2 BKN
08:10 -13.6 °C -15.1 °C 34635.4 hPa Calm     83 % 0 mm 35.0 W/m2 BKN
08:15 -13.5 °C -14.9 °C 34635.4 hPa Calm     84 % 0 mm 53.0 W/m2 SCT
08:20 -13.3 °C -14.7 °C 34635.4 hPa Calm     84 % 0 mm 67.0 W/m2 SCT
08:25 -13.2 °C -14.7 °C 34635.4 hPa Calm     83 % 0 mm 86.0 W/m2 FEW
08:30 -12.9 °C -14.6 °C 34635.4 hPa Calm     82 % 0 mm 104.0 W/m2 FEW
08:35 -12.7 °C -14.5 °C 34635.4 hPa Calm     81 % 0 mm 123.0 W/m2 CLR
08:40 -12.6 °C -14.4 °C 34635.4 hPa Calm     80 % 0 mm 139.0 W/m2 CLR
08:45 -12.3 °C -14.2 °C 34635.4 hPa Calm     79 % 0 mm 155.0 W/m2 CLR
08:50 -12.1 °C -14.1 °C 34635.4 hPa Calm     78 % 0 mm 171.0 W/m2 CLR
08:55 -11.7 °C -13.9 °C 34635.4 hPa Calm     77 % 0 mm 49.0 W/m2 CLR
09:00 -11.4 °C -13.9 °C 34635.4 hPa Calm     74 % 0 mm 176.0 W/m2 FEW
09:05 -11.2 °C -13.8 °C 34635.4 hPa Calm     73 % 0 mm 232.0 W/m2 FEW
09:10 -10.8 °C -13.6 °C 34635.4 hPa Calm     72 % 0 mm 250.0 W/m2 CLR
09:15 -10.5 °C -13.6 °C 34635.4 hPa Calm     69 % 0 mm 265.0 W/m2 CLR
09:20 -10.1 °C -13.4 °C 34635.4 hPa Calm     67 % 0 mm 283.0 W/m2 CLR
09:25 -9.8 °C -13.4 °C 34625.2 hPa WNW 20.9 km/h 20.9 km/h 65 % 0 mm 299.0 W/m2 CLR
09:30 -9.3 °C -13.5 °C 34625.2 hPa West 17.9 km/h 17.9 km/h 61 % 0 mm 315.0 W/m2 CLR
09:35 -9.1 °C -13.5 °C 34625.2 hPa West 20.9 km/h 20.9 km/h 59 % 0 mm 330.0 W/m2 CLR
09:40 -8.9 °C -13.6 °C 34625.2 hPa NW 29.8 km/h 29.8 km/h 58 % 0 mm 346.0 W/m2 CLR
09:45 -8.8 °C -13.6 °C 34625.2 hPa WNW 35.7 km/h 35.7 km/h 57 % 0 mm 366.0 W/m2 CLR
09:50 -8.8 °C -13.7 °C 34625.2 hPa West 29.8 km/h 29.8 km/h 56 % 0 mm 381.0 W/m2 CLR
09:55 -8.8 °C -13.7 °C 34625.2 hPa WNW 26.9 km/h 26.9 km/h 56 % 0 mm 397.0 W/m2 CLR
10:00 -8.7 °C -13.7 °C 34625.2 hPa WNW 38.8 km/h 38.8 km/h 55 % 0 mm 410.0 W/m2 CLR
10:05 -8.6 °C -13.5 °C 34625.2 hPa NW 29.8 km/h 29.8 km/h 56 % 0 mm 427.0 W/m2 CLR
10:10 -8.6 °C -13.6 °C 34625.2 hPa NW 17.9 km/h 17.9 km/h 55 % 0 mm 443.0 W/m2 CLR
10:15 -8.5 °C -13.6 °C 34625.2 hPa WNW 29.8 km/h 29.8 km/h 55 % 0 mm 459.0 W/m2 CLR
10:20 -8.4 °C -13.8 °C 34625.2 hPa West 35.7 km/h 35.7 km/h 53 % 0 mm 475.0 W/m2 CLR
10:25 -8.4 °C -13.5 °C 34625.2 hPa NNW 20.9 km/h 20.9 km/h 55 % 0 mm 489.0 W/m2 CLR
10:30 -8.3 °C -13.3 °C 34625.2 hPa WNW 31.1 km/h 31.1 km/h 55 % 0 mm 506.0 W/m2 CLR
10:35 -8.3 °C -13.5 °C 34625.2 hPa WNW 23.8 km/h 23.8 km/h 54 % 0 mm 520.0 W/m2 CLR
10:40 -8.2 °C -13.3 °C 34635.4 hPa NW 20.9 km/h 20.9 km/h 55 % 0 mm 534.0 W/m2 CLR
10:45 -8.2 °C -13.4 °C 34625.2 hPa WNW 20.9 km/h 20.9 km/h 54 % 0 mm 548.0 W/m2 CLR
10:50 -8.1 °C -13.5 °C 34625.2 hPa WSW 23.8 km/h 23.8 km/h 53 % 0 mm 566.0 W/m2 CLR
10:55 -8 °C -13.2 °C 34625.2 hPa NW 23.8 km/h 23.8 km/h 54 % 0 mm 578.0 W/m2 CLR
11:00 -7.9 °C -13.3 °C 34625.2 hPa WNW 23.8 km/h 23.8 km/h 53 % 0 mm 592.0 W/m2 CLR
11:05 -7.9 °C -13.4 °C 34625.2 hPa WNW 26.9 km/h 26.9 km/h 52 % 0 mm 605.0 W/m2 CLR
11:10 -7.8 °C -13.2 °C 34625.2 hPa NW 29.8 km/h 29.8 km/h 53 % 0 mm 624.0 W/m2 CLR
11:15 -7.7 °C -13.3 °C 34625.2 hPa WSW 10.3 km/h 10.3 km/h 52 % 0 mm 635.0 W/m2 CLR
11:20 -7.6 °C -13.2 °C 34625.2 hPa WSW 11.9 km/h 11.9 km/h 52 % 0 mm 647.0 W/m2 CLR
11:25 -7.4 °C -13.1 °C 34625.2 hPa NW 17.9 km/h 17.9 km/h 52 % 0 mm 659.0 W/m2 CLR
11:30 -7.4 °C -13 °C 34625.2 hPa NW 29.8 km/h 29.8 km/h 52 % 0 mm 673.0 W/m2 CLR
11:35 -7.4 °C -13.2 °C 34625.2 hPa West 36.2 km/h 36.2 km/h 51 % 0 mm 684.0 W/m2 CLR
11:40 -7.5 °C -13.2 °C 34625.2 hPa WNW 7.7 km/h 7.7 km/h 51 % 0 mm 694.0 W/m2 CLR
11:45 -7.4 °C -13.3 °C 34625.2 hPa WNW 29.8 km/h 29.8 km/h 50 % 0 mm 707.0 W/m2 CLR
11:50 -7.4 °C -13.3 °C 34625.2 hPa WNW 35.7 km/h 35.7 km/h 50 % 0 mm 717.0 W/m2 CLR
11:55 -7.3 °C -13.1 °C 34625.2 hPa West 15 km/h 15 km/h 51 % 0 mm 728.0 W/m2 CLR
12:00 -7.2 °C -12.9 °C 34625.2 hPa WNW 32.8 km/h 32.8 km/h 51 % 0 mm 740.0 W/m2 CLR
12:05 -7.1 °C -13.1 °C 34625.2 hPa NW 38.8 km/h 38.8 km/h 50 % 0 mm 747.0 W/m2 CLR
12:10 -7 °C -13.3 °C 34611.7 hPa West 29.8 km/h 29.8 km/h 48 % 0 mm 756.0 W/m2 CLR
12:15 -6.9 °C -13.2 °C 34611.7 hPa WNW 32.8 km/h 32.8 km/h 48 % 0 mm 770.0 W/m2 CLR
12:20 -6.8 °C -13.2 °C 34611.7 hPa WNW 18.2 km/h 18.2 km/h 48 % 0 mm 775.0 W/m2 CLR
12:25 -6.9 °C -13.2 °C 34611.7 hPa WNW 31.1 km/h 31.1 km/h 48 % 0 mm 782.0 W/m2 CLR
12:30 -6.8 °C -13.1 °C 34611.7 hPa WNW 9 km/h 9 km/h 48 % 0 mm 789.0 W/m2 CLR
12:35 -6.7 °C -13.2 °C 34611.7 hPa WSW 33.6 km/h 33.6 km/h 47 % 0 mm 798.0 W/m2 CLR
12:40 -6.6 °C -12.7 °C 34611.7 hPa NW 23.8 km/h 23.8 km/h 49 % 0 mm 807.0 W/m2 CLR
12:45 -6.5 °C -13 °C 34601.5 hPa WSW 29.8 km/h 29.8 km/h 47 % 0 mm 807.0 W/m2 CLR
12:50 -6.4 °C -12.8 °C 34611.7 hPa West 26.9 km/h 26.9 km/h 48 % 0 mm 816.0 W/m2 CLR
12:55 -6.4 °C -13.1 °C 34601.5 hPa WNW 29.8 km/h 29.8 km/h 46 % 0 mm 821.0 W/m2 CLR
13:00 -6.3 °C -12.6 °C 34601.5 hPa NNW 32.8 km/h 32.8 km/h 48 % 0 mm 823.0 W/m2 CLR
13:05 -6.2 °C -12.7 °C 34591.4 hPa WSW 38.8 km/h 38.8 km/h 47 % 0 mm 830.0 W/m2 CLR
13:10 -6.2 °C -12.7 °C 34601.5 hPa NNW 25.9 km/h 25.9 km/h 47 % 0 mm 835.0 W/m2 CLR
13:15 -6.2 °C -12.7 °C 34601.5 hPa NW 26.9 km/h 26.9 km/h 47 % 0 mm 835.0 W/m2 CLR
13:20 -6.1 °C -12.6 °C 34591.4 hPa WSW 9 km/h 9 km/h 47 % 0 mm 844.0 W/m2 CLR
13:25 -5.9 °C -12.9 °C 34591.4 hPa WNW 29.8 km/h 29.8 km/h 45 % 0 mm 842.0 W/m2 CLR
13:30 -5.9 °C -12.6 °C 34591.4 hPa NW 35.7 km/h 35.7 km/h 46 % 0 mm 849.0 W/m2 CLR
13:35 -5.8 °C -12.7 °C 34591.4 hPa WNW 9 km/h   45 % 0 mm 847.0 W/m2 CLR
13:40 -5.7 °C -12.6 °C 34577.8 hPa NW 32.8 km/h 32.8 km/h 45 % 0 mm 847.0 W/m2 CLR
13:45 -5.7 °C -12.8 °C 34577.8 hPa NNW 32.8 km/h 32.8 km/h 44 % 0 mm 853.0 W/m2 CLR
13:50 -5.6 °C -13.1 °C 34577.8 hPa North 20.9 km/h 20.9 km/h 42 % 0 mm 856.0 W/m2 CLR
13:55 -5.4 °C -12.8 °C 34567.7 hPa West 29.8 km/h 29.8 km/h 43 % 0 mm 856.0 W/m2 CLR
14:00 -5.4 °C -12.7 °C 34567.7 hPa WNW 29.8 km/h 29.8 km/h 43 % 0 mm 856.0 W/m2 CLR
14:05 -5.3 °C -12.9 °C 34567.7 hPa NNW 35.7 km/h 35.7 km/h 42 % 0 mm 853.0 W/m2 CLR
14:10 -5.3 °C -13 °C 34567.7 hPa NW 32.8 km/h 32.8 km/h 41 % 0 mm 856.0 W/m2 CLR
14:11 -5.3 °C -13 °C 34567.7 hPa West 15 km/h 15 km/h 41 % 0 mm 854.0 W/m2 CLR
14:16 -5.2 °C -13.1 °C 34567.7 hPa NW 41.7 km/h 41.7 km/h 40 % 0 mm 853.0 W/m2 CLR
14:21 -5.1 °C -12.8 °C 34567.7 hPa NNW 20.9 km/h 20.9 km/h 41 % 0 mm 849.0 W/m2 CLR
14:26 -5 °C -12.9 °C 34567.7 hPa WNW 29.8 km/h 29.8 km/h 40 % 0 mm 849.0 W/m2 CLR
14:31 -4.9 °C -12.9 °C 34567.7 hPa NW 17.9 km/h 17.9 km/h 40 % 0 mm 846.0 W/m2 CLR
14:36 -4.9 °C -12.8 °C 34567.7 hPa North 32.8 km/h 32.8 km/h 40 % 0 mm 842.0 W/m2 CLR
14:41 -4.8 °C -12.8 °C 34554.1 hPa NNW 29.8 km/h 29.8 km/h 40 % 0 mm 840.0 W/m2 CLR
14:46 -4.8 °C -12.9 °C 34554.1 hPa NW 31.1 km/h 31.1 km/h 39 % 0 mm 838.0 W/m2 CLR
14:51 -4.8 °C -13.2 °C 34554.1 hPa WNW 36.2 km/h 36.2 km/h 38 % 0 mm 837.0 W/m2 CLR
14:56 -4.7 °C -13.2 °C 34554.1 hPa NW 38.8 km/h 38.8 km/h 38 % 0 mm 826.0 W/m2 CLR
15:01 -4.7 °C -13.1 °C 34554.1 hPa NW 32.8 km/h 32.8 km/h 38 % 0 mm 824.0 W/m2 CLR
15:07 -4.6 °C -13 °C 34554.1 hPa NNW 41.7 km/h 41.7 km/h 38 % 0 mm 823.0 W/m2 CLR
15:12 -4.6 °C -13 °C 34554.1 hPa NW 38.8 km/h 38.8 km/h 38 % 0 mm 819.0 W/m2 CLR
15:17 -4.6 °C -13 °C 34544 hPa NW 29.8 km/h 29.8 km/h 38 % 0 mm 812.0 W/m2 CLR
15:22 -4.5 °C -13.2 °C 34544 hPa WNW 41.7 km/h 41.7 km/h 37 % 0 mm 800.0 W/m2 CLR
15:27 -4.5 °C -12.9 °C 34544 hPa WNW 38.8 km/h 38.8 km/h 38 % 0 mm 802.0 W/m2 CLR
15:32 -4.4 °C -13.1 °C 34544 hPa NW 44.7 km/h 44.7 km/h 37 % 0 mm 788.0 W/m2 CLR
15:37 -4.4 °C -13.3 °C 34544 hPa NW 35.7 km/h 35.7 km/h 36 % 0 mm 791.0 W/m2 CLR
15:42 -4.3 °C -13.5 °C 34533.8 hPa WNW 23.8 km/h 23.8 km/h 35 % 0 mm 777.0 W/m2 CLR
15:47 -4.3 °C -13.4 °C 34533.8 hPa North 29.8 km/h 29.8 km/h 35 % 0 mm 779.0 W/m2 CLR
15:52 -4.1 °C -13.3 °C 34533.8 hPa North 29.8 km/h 29.8 km/h 35 % 0 mm 765.0 W/m2 CLR
15:57 -4.1 °C -13.3 °C 34533.8 hPa North 28.5 km/h 28.5 km/h 35 % 0 mm 752.0 W/m2 CLR
16:02 -4 °C -13.9 °C 34533.8 hPa NNW 41.7 km/h 41.7 km/h 32 % 0 mm 747.0 W/m2 CLR
16:07 -4.1 °C -14.3 °C 34533.8 hPa NW 38.8 km/h 38.8 km/h 31 % 0 mm 735.0 W/m2 CLR
16:12 -4.1 °C -13.8 °C 34520.3 hPa NNW 15 km/h 15 km/h 33 % 0 mm 731.0 W/m2 CLR
16:17 -3.9 °C -13.8 °C 34520.3 hPa NNW 35.7 km/h 35.7 km/h 32 % 0 mm 728.0 W/m2 CLR
16:22 -3.8 °C -14 °C 34520.3 hPa NNE 29.8 km/h 29.8 km/h 31 % 0 mm 721.0 W/m2 CLR
16:27 -3.8 °C -14.6 °C 34520.3 hPa WNW 17.9 km/h 17.9 km/h 29 % 0 mm 694.0 W/m2 CLR
16:32 -3.8 °C -14.3 °C 34520.3 hPa NNE 26.9 km/h 26.9 km/h 30 % 0 mm 698.0 W/m2 CLR
16:37 -3.8 °C -15.4 °C 34510.1 hPa NW 32.8 km/h 32.8 km/h 26 % 0 mm 686.0 W/m2 CLR
16:42 -3.8 °C -15.7 °C 34510.1 hPa WNW 31.1 km/h 31.1 km/h 25 % 0 mm 670.0 W/m2 CLR
16:47 -3.8 °C -16.1 °C 34510.1 hPa NNW 41.7 km/h 41.7 km/h 24 % 0 mm 661.0 W/m2 CLR
16:52 -3.9 °C -15.8 °C 34510.1 hPa NNW 32.8 km/h 32.8 km/h 25 % 0 mm 643.0 W/m2 CLR
16:57 -4 °C -15.9 °C 34510.1 hPa NNW 29.8 km/h 29.8 km/h 25 % 0 mm 633.0 W/m2 CLR
17:02 -3.8 °C -15.4 °C 34510.1 hPa NNW 28.5 km/h 28.5 km/h 26 % 0 mm 621.0 W/m2 CLR
17:07 -3.8 °C -15.4 °C 34496.6 hPa NW 29.8 km/h 29.8 km/h 26 % 0 mm 603.0 W/m2 CLR
17:12 -3.8 °C -15.2 °C 34496.6 hPa NW 12.9 km/h 12.9 km/h 27 % 0 mm 591.0 W/m2 CLR
17:17 -3.8 °C -16.1 °C 34496.6 hPa NW 38.8 km/h 38.8 km/h 24 % 0 mm 577.0 W/m2 CLR
17:22 -3.8 °C -15.4 °C 34496.6 hPa NNW 29.8 km/h 29.8 km/h 26 % 0 mm 561.0 W/m2 CLR
17:27 -3.8 °C -15.7 °C 34496.6 hPa NW 35.7 km/h 35.7 km/h 25 % 0 mm 548.0 W/m2 CLR
17:32 -3.8 °C -16.8 °C 34496.6 hPa NW 35.7 km/h 35.7 km/h 22 % 0 mm 538.0 W/m2 CLR
17:37 -3.9 °C -16.8 °C 34486.4 hPa North 33.6 km/h 33.6 km/h 22 % 0 mm 526.0 W/m2 CLR
17:42 -3.9 °C -17.6 °C 34486.4 hPa WNW 31.1 km/h 31.1 km/h 20 % 0 mm 508.0 W/m2 CLR
17:47 -3.8 °C -17.4 °C 34486.4 hPa NW 32.8 km/h 32.8 km/h 20 % 0 mm 494.0 W/m2 CLR
17:52 -3.8 °C -17.4 °C 34486.4 hPa WNW 26.9 km/h 26.9 km/h 20 % 0 mm 478.0 W/m2 CLR
17:57 -3.8 °C -17.4 °C 34486.4 hPa North 38.8 km/h 38.8 km/h 20 % 0 mm 466.0 W/m2 CLR
18:02 -3.8 °C -17.1 °C 34486.4 hPa NNW 29.8 km/h 29.8 km/h 21 % 0 mm 452.0 W/m2 CLR
18:07 -3.9 °C -17.6 °C 34486.4 hPa NW 41.7 km/h 41.7 km/h 20 % 0 mm 427.0 W/m2 CLR
18:12 -3.9 °C -16.8 °C 34486.4 hPa North 28.5 km/h 28.5 km/h 22 % 0 mm 417.0 W/m2 CLR
18:17 -3.8 °C -17.9 °C 34486.4 hPa NNE 20.9 km/h 20.9 km/h 19 % 0 mm 401.0 W/m2 CLR
18:22 -3.8 °C -18.7 °C 34486.4 hPa WNW 44.7 km/h 44.7 km/h 17 % 0 mm 387.0 W/m2 CLR
18:27 -3.9 °C -18.8 °C 34486.4 hPa NNW 32.8 km/h 32.8 km/h 17 % 0 mm 366.0 W/m2 CLR
18:32 -3.9 °C -17.9 °C 34486.4 hPa NW 20.9 km/h 20.9 km/h 19 % 0 mm 348.0 W/m2 CLR
18:37 -3.9 °C -17.6 °C 34486.4 hPa NW 29.8 km/h 29.8 km/h 20 % 0 mm 334.0 W/m2 CLR
18:42 -4.1 °C -18.4 °C 34486.4 hPa NNW 35.7 km/h 35.7 km/h 18 % 0 mm 318.0 W/m2 CLR
18:47 -4.1 °C -18.5 °C 34486.4 hPa NW 32.8 km/h 32.8 km/h 18 % 0 mm 295.0 W/m2 CLR
18:52 -4.1 °C -18.1 °C 34486.4 hPa WNW 10.3 km/h 10.3 km/h 19 % 0 mm 281.0 W/m2 CLR
18:57 -4.1 °C -18.4 °C 34486.4 hPa NNW 29.8 km/h 29.8 km/h 18 % 0 mm 265.0 W/m2 CLR
19:02 -4.1 °C -18.1 °C 34486.4 hPa NNW 23.8 km/h 23.8 km/h 19 % 0 mm 244.0 W/m2 CLR
19:07 -4.2 °C -17.7 °C 34486.4 hPa NW 32.8 km/h 32.8 km/h 20 % 0 mm 221.0 W/m2 CLR
19:12 -4.3 °C -17.4 °C 34486.4 hPa NW 38.8 km/h 38.8 km/h 21 % 0 mm 202.0 W/m2 CLR
19:17 -4.3 °C -17.9 °C 34486.4 hPa NNW 32.8 km/h 32.8 km/h 20 % 0 mm 185.0 W/m2 CLR
19:22 -4.4 °C -17.9 °C 34486.4 hPa NNW 33.6 km/h 33.6 km/h 20 % 0 mm 167.0 W/m2 CLR
19:27 -4.4 °C -18 °C 34486.4 hPa NW 33.6 km/h 33.6 km/h 20 % 0 mm 148.0 W/m2 CLR
19:32 -4.5 °C -18 °C 34486.4 hPa NW 26.9 km/h 26.9 km/h 20 % 0 mm 127.0 W/m2 CLR
19:37 -4.6 °C -18.1 °C 34486.4 hPa WNW 29.8 km/h 29.8 km/h 20 % 0 mm 109.0 W/m2 CLR
19:42 -4.6 °C -17.7 °C 34486.4 hPa NNW 26.9 km/h 26.9 km/h 21 % 0 mm 93.0 W/m2 CLR
19:47 -4.7 °C -17.4 °C 34486.4 hPa NW 26.9 km/h 26.9 km/h 22 % 0 mm 77.0 W/m2 FEW
19:52 -4.8 °C -17.6 °C 34486.4 hPa NNW 23.8 km/h 23.8 km/h 22 % 0 mm 49.0 W/m2 SCT
19:57 -4.8 °C -17.6 °C 34486.4 hPa NW 9 km/h 9 km/h 22 % 0 mm 46.0 W/m2 SCT
20:02 -4.9 °C -17.7 °C 34486.4 hPa NW 20.9 km/h 20.9 km/h 22 % 0 mm 37.0 W/m2 BKN
20:07 -5.1 °C -17.4 °C 34486.4 hPa NW 9 km/h 9 km/h 23 % 0 mm 26.0 W/m2 BKN
20:12 -5.2 °C -17.2 °C 34486.4 hPa Calm     24 % 0 mm 16.0 W/m2 BKN
20:17 -5.4 °C -17.1 °C 34486.4 hPa Calm     25 % 0 mm 14.0 W/m2 BKN
20:22 -5.6 °C -17.6 °C 34486.4 hPa NW 9 km/h 9 km/h 24 % 0 mm 11.0 W/m2 BKN
20:27 -5.8 °C -17.4 °C 34486.4 hPa Calm     25 % 0 mm 9.0 W/m2 BKN
20:32 -6.1 °C -17.3 °C 34486.4 hPa Calm     26 % 0 mm 7.0 W/m2 BKN
20:37 -6.3 °C -17.3 °C 34486.4 hPa Calm     27 % 0 mm 0.0 W/m2 OVC
20:42 -6.6 °C -17.2 °C 34486.4 hPa Calm     28 % 0 mm 0.0 W/m2 OVC
20:47 -6.8 °C -17.3 °C 34486.4 hPa Calm     28 % 0 mm 0.0 W/m2 CLR
20:52 -6.9 °C -17.2 °C 34496.6 hPa Calm     29 % 0 mm 0.0 W/m2 CLR
20:57 -7.1 °C -17.1 °C 34496.6 hPa Calm     30 % 0 mm 0.0 W/m2 CLR
21:02 -7.3 °C -17 °C 34496.6 hPa Calm     31 % 0 mm 0.0 W/m2 CLR
21:07 -7.4 °C -17.1 °C 34496.6 hPa Calm     31 % 0 mm 0.0 W/m2 CLR
21:12 -7.6 °C -16.8 °C 34510.1 hPa Calm     33 % 0 mm 0.0 W/m2 CLR
21:17 -7.6 °C -16.8 °C 34510.1 hPa Calm     33 % 0 mm 0.0 W/m2 CLR
21:22 -7.7 °C -16.7 °C 34510.1 hPa Calm     34 % 0 mm 0.0 W/m2 CLR
21:27 -7.7 °C -16.9 °C 34520.3 hPa West 9 km/h 9 km/h 33 % 0 mm 0.0 W/m2 CLR
21:32 -7.6 °C -17.1 °C 34520.3 hPa West 3.1 km/h 3.1 km/h 32 % 0 mm 0.0 W/m2 CLR
21:37 -7.6 °C -17.1 °C 34520.3 hPa West 3.1 km/h 3.1 km/h 32 % 0 mm 0.0 W/m2 CLR
21:42 -7.6 °C -17.1 °C 34520.3 hPa Calm     32 % 0 mm 0.0 W/m2 CLR
21:48 -7.9 °C -17.1 °C 34533.8 hPa West 9 km/h 9 km/h 33 % 0 mm 0.0 W/m2 CLR
21:52 -7.8 °C -17.3 °C 34533.8 hPa West 18.2 km/h 18.2 km/h 32 % 0 mm 0.0 W/m2 CLR
21:58 -7.6 °C -17.3 °C 34533.8 hPa West 15 km/h 15 km/h 31 % 0 mm 0.0 W/m2 CLR
22:03 -7.6 °C -17.3 °C 34533.8 hPa West 9 km/h 9 km/h 31 % 0 mm 0.0 W/m2 CLR
22:07 -7.7 °C -17.2 °C 34533.8 hPa Calm     32 % 0 mm 0.0 W/m2 CLR
22:13 -7.8 °C -17 °C 34544 hPa West 10.3 km/h 10.3 km/h 33 % 0 mm 0.0 W/m2 CLR
22:18 -7.7 °C -16.9 °C 34544 hPa West 20.8 km/h 20.8 km/h 33 % 0 mm 0.0 W/m2 CLR
22:23 -7.6 °C -16.8 °C 34544 hPa West 15.6 km/h 15.6 km/h 33 % 0 mm 0.0 W/m2 CLR
22:28 -7.7 °C -16.9 °C 34544 hPa West 15 km/h 15 km/h 33 % 0 mm 0.0 W/m2 CLR
22:33 -7.8 °C -16.8 °C 34544 hPa WSW 17.9 km/h 17.9 km/h 34 % 0 mm 0.0 W/m2 CLR
22:38 -7.9 °C -16.6 °C 34544 hPa WSW 11.9 km/h 11.9 km/h 35 % 0 mm 0.0 W/m2 CLR
22:43 -8 °C -16.7 °C 34544 hPa West 9 km/h 9 km/h 35 % 0 mm 0.0 W/m2 CLR
22:48 -8.1 °C -16.3 °C 34554.1 hPa West 15 km/h 15 km/h 37 % 0 mm 0.0 W/m2 CLR
22:53 -8 °C -16.3 °C 34554.1 hPa West 18.2 km/h 18.2 km/h 37 % 0 mm 0.0 W/m2 CLR
22:58 -7.9 °C -16.2 °C 34544 hPa West 23.8 km/h 23.8 km/h 37 % 0 mm 0.0 W/m2 CLR
23:03 -7.9 °C -16.2 °C 34544 hPa WNW 17.9 km/h 17.9 km/h 37 % 0 mm 0.0 W/m2 CLR
23:08 -8 °C -16.1 °C 34544 hPa West 23.8 km/h 23.8 km/h 38 % 0 mm 0.0 W/m2 CLR
23:13 -8 °C -16.1 °C 34554.1 hPa WNW 32.8 km/h 32.8 km/h 38 % 0 mm 0.0 W/m2 CLR
23:18 -8 °C -15.9 °C 34544 hPa WNW 29.8 km/h 29.8 km/h 39 % 0 mm 0.0 W/m2 CLR
23:23 -7.9 °C -15.8 °C 34544 hPa West 29.8 km/h 29.8 km/h 39 % 0 mm 0.0 W/m2 CLR
23:28 -8 °C -15.7 °C 34544 hPa West 29.8 km/h 29.8 km/h 40 % 0 mm 0.0 W/m2 CLR
23:33 -8 °C -15.7 °C 34544 hPa WNW 35.7 km/h 35.7 km/h 40 % 0 mm 0.0 W/m2 CLR
23:38 -7.9 °C -15.6 °C 34544 hPa WNW 32.8 km/h 32.8 km/h 40 % 0 mm 0.0 W/m2 CLR
23:43 -7.9 °C -15.6 °C 34554.1 hPa West 29.8 km/h 29.8 km/h 40 % 0 mm 0.0 W/m2 CLR
23:48 -7.9 °C -15.6 °C 34554.1 hPa WNW 31.1 km/h 31.1 km/h 40 % 0 mm 0.0 W/m2 CLR
23:53 -7.9 °C -15.6 °C 34554.1 hPa West 35.7 km/h 35.7 km/h 40 % 0 mm 0.0 W/m2 CLR
23:58 -8 °C -15.4 °C 34554.1 hPa WNW 29.8 km/h 29.8 km/h 41 % 0 mm 0.0 W/m2 CLR
Lo Temps de Massalio
Compliments of Weather Underground - 1.25 mb